TimeAKDT,TemperatureF,Dew PointF,Humidity,Sea Level PressureIn,VisibilityMPH,Wind Direction,Wind SpeedMPH,Gust SpeedMPH,PrecipitationIn,Events,Conditions,WindDirDegrees,DateUTC
12:16 AM,-5.8,-7.6,92,30.38,10.0,Calm,Calm,-,N/A,,Overcast,0,2012-10-23 08:16:00
12:36 AM,-5.8,-9.4,84,30.38,10.0,SSW,5.8,-,N/A,,Scattered Clouds,200,2012-10-23 08:36:00
12:56 AM,-7.6,-9.4,92,30.38,10.0,Calm,Calm,-,N/A,,Mostly Cloudy,0,2012-10-23 08:56:00
1:16 AM,-5.8,-9.4,84,30.38,10.0,Calm,Calm,-,N/A,,Overcast,0,2012-10-23 09:16:00
1:36 AM,-5.8,-7.6,92,30.39,10.0,Calm,Calm,-,N/A,,Overcast,0,2012-10-23 09:36:00
1:56 AM,-5.8,-7.6,92,30.38,10.0,Calm,Calm,-,N/A,,Overcast,0,2012-10-23 09:56:00
2:16 AM,-5.8,-7.6,92,30.38,10.0,Calm,Calm,-,N/A,,Overcast,0,2012-10-23 10:16:00
2:36 AM,-5.8,-7.6,92,30.39,10.0,Calm,Calm,-,N/A,,Overcast,0,2012-10-23 10:36:00
2:56 AM,-5.8,-7.6,92,30.39,10.0,Calm,Calm,-,N/A,,Overcast,0,2012-10-23 10:56:00
3:16 AM,-5.8,-7.6,92,30.39,10.0,Calm,Calm,-,N/A,,Overcast,0,2012-10-23 11:16:00
3:36 AM,-5.8,-9.4,84,30.39,10.0,Calm,Calm,-,N/A,,Overcast,0,2012-10-23 11:36:00
3:56 AM,-7.6,-9.4,92,30.39,10.0,Calm,Calm,-,N/A,,Overcast,0,2012-10-23 11:56:00
4:16 AM,-7.6,-11.2,84,30.39,10.0,Calm,Calm,-,N/A,,Overcast,0,2012-10-23 12:16:00
4:36 AM,-9.4,-14.8,77,30.40,10.0,Calm,Calm,-,N/A,,Overcast,0,2012-10-23 12:36:00
4:56 AM,-11.2,-14.8,84,30.41,10.0,Calm,Calm,-,N/A,,Scattered Clouds,0,2012-10-23 12:56:00
5:16 AM,-11.2,-14.8,84,30.41,10.0,Calm,Calm,-,N/A,,Partly Cloudy,0,2012-10-23 13:16:00
5:36 AM,-13.0,-16.6,84,30.41,10.0,Calm,Calm,-,N/A,,Partly Cloudy,0,2012-10-23 13:36:00
5:56 AM,-14.8,-16.6,92,30.42,10.0,Calm,Calm,-,N/A,,Clear,0,2012-10-23 13:56:00
6:16 AM,-14.8,-16.6,92,30.43,10.0,Calm,Calm,-,N/A,,Mostly Cloudy,0,2012-10-23 14:16:00
6:36 AM,-14.8,-16.6,92,30.43,10.0,Calm,Calm,-,N/A,,Mostly Cloudy,0,2012-10-23 14:36:00
6:56 AM,-14.8,-16.6,92,30.44,10.0,Calm,Calm,-,N/A,,Mostly Cloudy,0,2012-10-23 14:56:00
7:16 AM,-9999,-9999,N/A,30.44,10.0,Calm,Calm,-,N/A,,Overcast,0,2012-10-23 15:16:00
7:36 AM,-11.2,-14.8,84,30.45,10.0,Calm,Calm,-,N/A,,Overcast,0,2012-10-23 15:36:00
7:56 AM,-11.2,-14.8,84,30.46,8.0,Calm,Calm,-,N/A,,Overcast,0,2012-10-23 15:56:00
8:16 AM,-11.2,-13.0,92,30.46,10.0,Calm,Calm,-,N/A,,Overcast,0,2012-10-23 16:16:00
8:36 AM,-11.2,-14.8,84,30.46,10.0,Calm,Calm,-,N/A,,Overcast,0,2012-10-23 16:36:00
8:56 AM,-11.2,-14.8,84,30.45,10.0,Calm,Calm,-,N/A,,Overcast,0,2012-10-23 16:56:00
9:16 AM,-11.2,-14.8,84,30.46,10.0,Calm,Calm,-,N/A,,Overcast,0,2012-10-23 17:16:00
9:36 AM,-11.2,-14.8,84,30.45,10.0,Calm,Calm,-,N/A,,Overcast,0,2012-10-23 17:36:00
9:56 AM,-11.2,-14.8,84,30.45,10.0,Calm,Calm,-,N/A,,Overcast,0,2012-10-23 17:56:00
10:16 AM,-9.4,-13.0,84,30.44,10.0,Calm,Calm,-,N/A,,Scattered Clouds,0,2012-10-23 18:16:00
10:36 AM,-7.6,-11.2,84,30.44,10.0,Calm,Calm,-,N/A,,Clear,0,2012-10-23 18:36:00
10:56 AM,-5.8,-7.6,92,30.44,10.0,Calm,Calm,-,N/A,,Clear,0,2012-10-23 18:56:00
11:16 AM,-2.2,-5.8,85,30.44,10.0,Calm,Calm,-,N/A,,Clear,0,2012-10-23 19:16:00
11:36 AM,-0.4,-4.0,85,30.44,10.0,Calm,Calm,-,N/A,,Clear,0,2012-10-23 19:36:00
11:56 AM,3.2,-2.2,78,30.43,10.0,Calm,Calm,-,N/A,,Clear,0,2012-10-23 19:56:00
12:16 PM,5.0,-0.4,78,30.44,10.0,Calm,Calm,-,N/A,,Clear,0,2012-10-23 20:16:00
12:36 PM,8.6,1.4,73,30.44,10.0,Calm,Calm,-,N/A,,Clear,0,2012-10-23 20:36:00
12:56 PM,10.4,3.2,73,30.44,10.0,Calm,Calm,-,N/A,,Clear,0,2012-10-23 20:56:00
1:16 PM,12.2,5.0,73,30.43,10.0,Calm,Calm,-,N/A,,Clear,0,2012-10-23 21:16:00
1:36 PM,17.6,5.0,58,30.43,7.0,Calm,Calm,-,N/A,,Clear,0,2012-10-23 21:36:00
1:56 PM,17.6,6.8,63,30.44,5.0,NNE,3.5,-,N/A,,Clear,30,2012-10-23 21:56:00
2:16 PM,15.8,6.8,68,30.44,10.0,Calm,Calm,-,N/A,,Clear,0,2012-10-23 22:16:00
2:36 PM,15.8,6.8,68,30.44,10.0,North,3.5,-,N/A,,Clear,360,2012-10-23 22:36:00
2:56 PM,15.8,8.6,73,30.43,10.0,Calm,Calm,-,N/A,,Clear,0,2012-10-23 22:56:00
3:16 PM,17.6,8.6,68,30.43,10.0,NNE,3.5,-,N/A,,Clear,20,2012-10-23 23:16:00
3:36 PM,17.6,8.6,68,30.44,10.0,Calm,Calm,-,N/A,,Clear,0,2012-10-23 23:36:00
3:56 PM,17.6,8.6,68,30.43,10.0,Calm,Calm,-,N/A,,Clear,0,2012-10-23 23:56:00
4:16 PM,19.4,8.6,63,30.43,10.0,North,4.6,-,N/A,,Clear,360,2012-10-24 00:16:00
4:36 PM,15.8,8.6,73,30.43,10.0,Calm,Calm,-,N/A,,Clear,0,2012-10-24 00:36:00
4:56 PM,15.8,8.6,73,30.43,10.0,Calm,Calm,-,N/A,,Clear,0,2012-10-24 00:56:00
5:16 PM,12.2,5.0,73,30.43,10.0,Calm,Calm,-,N/A,,Clear,0,2012-10-24 01:16:00
5:36 PM,8.6,3.2,79,30.43,10.0,Calm,Calm,-,N/A,,Clear,0,2012-10-24 01:36:00
5:56 PM,5.0,1.4,85,30.44,10.0,Calm,Calm,-,N/A,,Clear,0,2012-10-24 01:56:00
6:16 PM,3.2,1.4,92,30.44,10.0,Calm,Calm,-,N/A,,Clear,0,2012-10-24 02:16:00
6:36 PM,3.2,1.4,92,30.44,10.0,Calm,Calm,-,N/A,,Clear,0,2012-10-24 02:36:00
6:56 PM,1.4,-0.4,92,30.44,10.0,Calm,Calm,-,N/A,,Clear,0,2012-10-24 02:56:00
7:16 PM,-0.4,-2.2,92,30.44,10.0,Calm,Calm,-,N/A,,Clear,0,2012-10-24 03:16:00
7:36 PM,-0.4,-2.2,92,30.45,10.0,Calm,Calm,-,N/A,,Clear,0,2012-10-24 03:36:00
7:56 PM,-0.4,-4.0,85,30.45,10.0,Calm,Calm,-,N/A,,Clear,0,2012-10-24 03:56:00
8:16 PM,-2.2,-5.8,85,30.45,10.0,Calm,Calm,-,N/A,,Clear,0,2012-10-24 04:16:00
8:36 PM,-2.2,-5.8,85,30.46,10.0,Calm,Calm,-,N/A,,Clear,0,2012-10-24 04:36:00
8:56 PM,-4.0,-5.8,92,30.46,10.0,Calm,Calm,-,N/A,,Clear,0,2012-10-24 04:56:00
9:16 PM,-5.8,-7.6,92,30.46,10.0,Calm,Calm,-,N/A,,Clear,0,2012-10-24 05:16:00
9:36 PM,-5.8,-7.6,92,30.46,10.0,Calm,Calm,-,N/A,,Clear,0,2012-10-24 05:36:00
9:56 PM,-5.8,-7.6,92,30.46,10.0,Calm,Calm,-,N/A,,Clear,0,2012-10-24 05:56:00
10:16 PM,-7.6,-9.4,92,30.46,10.0,Calm,Calm,-,N/A,,Clear,0,2012-10-24 06:16:00
10:36 PM,-7.6,-9.4,92,30.46,10.0,Calm,Calm,-,N/A,,Clear,0,2012-10-24 06:36:00
10:56 PM,-7.6,-11.2,84,30.47,10.0,Calm,Calm,-,N/A,,Clear,0,2012-10-24 06:56:00
11:16 PM,-9.4,-11.2,92,30.47,10.0,Calm,Calm,-,N/A,,Clear,0,2012-10-24 07:16:00
11:36 PM,-9.4,-11.2,92,30.47,10.0,Calm,Calm,-,N/A,,Clear,0,2012-10-24 07:36:00
11:56 PM,-9.4,-11.2,92,30.47,10.0,Calm,Calm,-,N/A,,Clear,0,2012-10-24 07:56:00